237  
ASUS45 KPSR 201710  
RWRAZ  
 
ARIZONA HOURLY REGIONAL WEATHER ROUNDUP  
NATIONAL WEATHER SERVICE PHOENIX AZ  
1000 AM MST MON AUG 20 2018  
 
NOTE: FAIR INDICATES FEW OR NO CLOUDS BELOW 12,000 FEET WITH NO  
SIGNIFICANT WEATHER AND/OR S TO VISIBILITY
.  
 
AZZ001>003-036-201800-  
NORTHWEST ARIZONA  
 
CITY SKY/WX TMP DP RH WIND PRES REMARKS
 
BULLHEAD CITY MOSUNNY 102 61 25 S16 29.81S HX 103  
KINGMAN FAIR 93 58 30 SW13 30.05S  

 
 
AZZ004>008-015-016-018-201800-  
NORTH CENTRAL ARIZONA  
 
CITY SKY/WX TMP DP RH WIND PRES REMARKS
 
GRAND CANYON PTSUNNY 80 50 34 SW10 30.32R  
WILLIAMS FAIR 79 50 36 VRB7 30.31S  
PRESCOTT FAIR 85 60 42 CALM 30.20R  
FLAGSTAFF FAIR 78 52 40 W7 30.35R  
PAYSON FAIR 84 55 37 SW5 30.21S  
PAGE FAIR 88 30 12 VRB5 30.10S  

 
 
AZZ009>014-017-201800-  
NORTHEAST ARIZONA  
 
CITY SKY/WX TMP DP RH WIND PRES REMARKS
 
WINSLOW FAIR 85 48 27 E7 30.18F  
SAINT JOHNS FAIR 81 37 20 CALM 30.26S  
WINDOW ROCK FAIR 80 28 15 VRB6 30.33F  
SHOW LOW FAIR 81 50 34 NE6 30.32S  

 
 
AZZ540-542>544-546-548-201800-  
GREATER PHOENIX AREA  
 
CITY SKY/WX TMP DP RH WIND PRES REMARKS
 
PHOENIX FAIR 98 62 30 S5 29.90R  
BUCKEYE FAIR 97 59 28 S7 29.92R  
GLENDALE MOSUNNY 99 57 25 S10 29.92S  
LUKE AFB FAIR 98 58 26 S14 29.90R  
DEER VALLEY FAIR 95 59 30 SW8 29.93R  
SCOTTSDALE FAIR 97 58 27 SW7 29.95S  
MESA-FALCON SUNNY 97 63 32 E5 29.94S  
MESA-GATEWAY SUNNY 95 63 34 VRB3 29.95S  
CHANDLER MOSUNNY 95 61 31 E6 29.93R  

 
 
AZZ539-553-201800-  
SOUTHWEST MARICOPA COUNTY AND PINAL COUNTY  
 
CITY SKY/WX TMP DP RH WIND PRES REMARKS
 
CASA GRANDE FAIR 95 62 33 SW8 29.96R  
GILA BEND FAIR 100 57 24 S8 29.88S  

 
 
AZZ503-504-507>509-201800-  
SOUTHEAST ARIZONA  
 
CITY SKY/WX TMP DP RH WIND PRES REMARKS
 
TUCSON FAIR 92 63 38 CALM 30.05S  
DAVIS-MONTHAN FAIR 93 63 36 SE3 30.04S  
NOGALES FAIR N/A N/A N/A MISG 30.15S  
SIERRA VISTA PTSUNNY 84 60 43 NW7 30.21R  
DOUGLAS FAIR 82 66 58 SE7 30.17R  
SAFFORD FAIR 91 57 31 VRB7 30.04S  

 
 
AZZ532-201800-  
SOUTHWEST ARIZONA  
 
CITY SKY/WX TMP DP RH WIND PRES REMARKS
 
YUMA FAIR 98 71 41 S17 29.82R HX 106  

 
 
CAZ041-043-047-048-061-525>527-560>570-201800-  
SOUTHERN CALIFORNIA  
 
CITY SKY/WX TMP DP RH WIND PRES REMARKS
 
DOWNTOWN L.A. CLOUDY 76 65 68 CALM 29.94S  
L.A. AIRPORT CLOUDY 75 65 70 SE8 29.95S  
SAN DIEGO CLOUDY 75 65 70 SW5 29.96S  
BURBANK PTSUNNY 72 66 81 S7 29.96  
ONTARIO FAIR 77 64 64 NW6 29.96S  
RIVERSIDE FAIR 76 64 66 CALM 29.96S  
PALM SPRINGS FAIR 97 61 30 CALM 29.86R  
EL CENTRO NAS FAIR 96 70 42 SE5 29.81S HX 102  
IMPERIAL FAIR 96 72 45 CALM 29.79S HX 104  
BLYTHE FAIR 100 63 29 S20 29.83R HX 102  
NEEDLES FAIR 106 60 22 SW8 29.83S HX 107  

 
 
NVZ020-UTZ003-201800-  
SOUTHERN NEVADA-UTAH  
 
CITY SKY/WX TMP DP RH WIND PRES REMARKS
 
LAS VEGAS FAIR 101 47 16 S8 29.88R  
SALT LAKE CITY FAIR 77 42 28 SE13 29.97F  

 
 
NMZ009-TXZ055-201800-  
NEW MEXICO-WEST TEXAS  
 
CITY SKY/WX TMP DP RH WIND PRES REMARKS
 
ALBUQUERQUE FAIR 76 52 43 SE5 30.30S  
EL PASO PTSUNNY 86 58 38 E18G24 30.16S  

 
 
   
.......................KEY.....................
 
 
SKY/WX - SKY CONDITION/WEATHER  
TMP - TEMPERATURE IN FAHRENHEIT  
DP - DEW POINT IN FAHRENHEIT  
RH - RELATIVE HUMIDITY IN PERCENT  
WIND - DIRECTION AND SPEED IN MILES PER HOUR (MPH)  
VRB - VARIABLE WIND DIRECTION  
PRES - MEAN SEA LEVEL PRESSURE IN INCHES OF MERCURY  
F - FALLING PRESSURE R - RISING PRESSURE  
S - STEADY PRESSURE  
VSB - VISIBILITY IN MILES  
HX - HEAT INDEX IN FAHRENHEIT  
WCI - WIND CHILL INDEX IN FAHRENHEIT  
TC - TEMPERATURE IN CELSIUS WHICH IS ALSO KNOWN AS  
TEMPERATURE IN CENTIGRADE  
AFB - AIR FORCE BASE  
LUKE AFB IS LUKE AIR FORCE BASE  
DAVIS-MONTHAN IS DAVIS-MONTHAN AIR FORCE BASE  
NAS - NAVAL AIR STATION  
EL CENTRO NAS IS EL CENTRO NAVAL AIR STATION  
N/A - NOT AVAILABLE  
 
 
 
CLICK HERE TO GO TO PREVIOUS BULLETINS.

The Nexlab AZ Page Main Text Page